[[{"header":{"parameterUnit":"m.s-1","parameterCategory":1,"la1":30.2992,"la2":30.254,"lo1":-89.0895,"lo2":-89.0443,"dy":0.0025,"dx":0.0025,"nx":19,"ny":19,"refTime":"2026-04-23T09:00:00:Z","depth":0,"parameterNumber":2,"parameterNumberName":"U-component_of_WINDS"},"data":[0,0,0,-1.063,-1.0629,-1.0557,-1.0557,-1.048,-1.0479,0,0,0,0,0,0,0,0,0,0,0,-1.0661,-1.0661,-1.063,-1.0628,-1.0557,-1.0557,-1.048,-1.0479,0,0,0,0,0,0,0,0,0,0,0,-1.0661,-1.0661,-1.066,-1.0628,-1.0557,-1.0557,-1.048,-1.0528,0,0,0,0,0,0,0,0,0,0,-1.0595,-1.0634,-1.0661,-1.066,-1.0628,-1.0557,-1.0557,-1.053,-1.0525,-1.0518,0,-1.0516,0,-1.0497,-1.0475,-1.0475,0,0,0,-1.0621,-1.0638,-1.061,-1.066,-1.0627,-1.0558,-1.0587,-1.0527,-1.0522,-1.0512,-1.0515,-1.0512,-1.0495,-1.0475,-1.0474,-1.0462,-1.0463,0,0,-1.0625,-1.0653,-1.0614,-1.0607,-1.062,-1.059,-1.0585,-1.0524,-1.0528,-1.0514,-1.0509,-1.0494,-1.0474,-1.0474,-1.0462,-1.0463,0,0,0,-1.0641,-1.0656,-1.0629,-1.061,-1.0597,-1.0588,-1.0583,-1.0531,-1.052,-1.0508,-1.0493,-1.0474,-1.0473,-1.0462,-1.0462,-1.0504,0,0,0,-1.0643,-1.0666,-1.0631,-1.0648,-1.0598,-1.0563,-1.0592,-1.0524,-1.0516,-1.0494,-1.0474,-1.0472,-1.0461,-1.0462,-1.0502,-1.0518,0,0,0,-1.0662,-1.0668,-1.0661,-1.065,-1.062,-1.0564,-1.0549,-1.0522,-1.0508,-1.0475,-1.0472,-1.0461,-1.0462,-1.05,-1.0516,-1.0522,0,0,0,-1.069,-1.0699,-1.0662,-1.0666,-1.0621,-1.0591,-1.0549,-1.0525,-1.0502,-1.0474,-1.0461,-1.0462,-1.05,-1.0514,-1.0521,-1.0532,-1.054,0,0,-1.0717,-1.0703,-1.0704,-1.0668,-1.0652,-1.06,-1.0589,-1.0541,-1.0511,-1.048,-1.0479,-1.0503,-1.0515,-1.0522,-1.0578,-1.0585,0,0,0,-1.0722,-1.0722,-1.0712,-1.0692,-1.0656,-1.0626,-1.0577,-1.0559,-1.0531,-1.0502,-1.0507,-1.0514,-1.0517,-1.0521,-1.0526,-1.0526,-1.0466,-1.0466,-1.0466,-1.0799,-1.0762,-1.0759,-1.0714,-1.0695,-1.0644,-1.0625,-1.0592,-1.056,-1.0562,-1.0551,-1.059,-1.0596,-1.06,-1.06,-1.0556,-1.0556,-1.0556,-1.0556,-1.0834,-1.0828,-1.0785,-1.0768,-1.0728,-1.0712,-1.0664,-1.0642,-1.062,-1.0595,-1.0595,-1.0569,-1.0608,-1.0606,-1.0559,-1.0559,-1.0558,-1.0558,-1.0558,-1.0879,-1.0869,-1.0848,-1.0815,-1.0794,-1.0747,-1.0729,-1.0694,-1.066,-1.0661,-1.0645,-1.0644,-1.0638,-1.0656,-1.0657,-1.0657,-1.0657,-1.0657,-1.0657,-1.0933,-1.0908,-1.0897,-1.086,-1.0843,-1.0815,-1.0765,-1.0746,-1.0715,-1.0691,-1.0691,-1.0657,-1.062,-1.061,-1.0659,-1.0659,-1.0658,-1.0658,-1.0658,-1.0979,-1.0963,-1.0946,-1.0929,-1.0882,-1.0862,-1.0818,-1.0783,-1.0762,-1.0754,-1.0721,-1.07,-1.0683,-1.0678,-1.067,-1.073,-1.073,-1.073,-1.073,-1.1015,-1.1004,-1.0978,-1.0952,-1.0923,-1.0881,-1.0862,-1.0823,-1.078,-1.0765,-1.0752,-1.0738,-1.0735,-1.0719,-1.0714,-1.0705,-1.0774,-1.0774,-1.0774,-1.104,-1.1024,-1.1015,-1.0974,-1.0935,-1.0902,-1.0883,-1.0853,-1.0801,-1.0775,-1.0752,-1.075,-1.0728,-1.0723,-1.0694,-1.0686,-1.0669,0,0]},{"header":{"parameterUnit":"m.s-1","parameterCategory":1,"la1":30.2992,"la2":30.254,"lo1":-89.0895,"lo2":-89.0443,"dy":0.0025,"dx":0.0025,"nx":19,"ny":19,"refTime":"2026-04-23T09:00:00:Z","depth":0,"parameterNumber":3,"parameterNumberName":"V-component_of_WINDS"},"data":[0,0,0,4.0293,4.0293,4.032,4.0321,4.0337,4.0337,0,0,0,0,0,0,0,0,0,0,0,4.0275,4.0275,4.0293,4.0293,4.032,4.0321,4.0337,4.0337,0,0,0,0,0,0,0,0,0,0,0,4.0275,4.0275,4.0274,4.0293,4.032,4.0321,4.0337,4.0323,0,0,0,0,0,0,0,0,0,0,4.0299,4.0273,4.0275,4.0274,4.0293,4.032,4.0321,4.0322,4.0324,4.0318,0,4.0311,0,4.0324,4.0337,4.0337,0,0,0,4.03,4.0272,4.0289,4.0274,4.0294,4.032,4.031,4.0323,4.0325,4.0319,4.0311,4.0312,4.0325,4.0337,4.0337,4.0286,4.0285,0,0,4.0298,4.0274,4.0288,4.0289,4.0286,4.0309,4.0311,4.0325,4.0313,4.0311,4.0313,4.0325,4.0337,4.0337,4.0286,4.0286,0,0,0,4.029,4.0272,4.0289,4.0288,4.0295,4.031,4.0312,4.0313,4.032,4.0313,4.0325,4.0337,4.0337,4.0287,4.0286,4.0236,0,0,0,4.0289,4.0267,4.0288,4.0273,4.0294,4.0304,4.0299,4.0319,4.0322,4.0325,4.0337,4.0337,4.0288,4.0287,4.0239,4.0216,0,0,0,4.0276,4.0266,4.0267,4.0272,4.0283,4.0304,4.0313,4.032,4.0329,4.0337,4.0337,4.0288,4.0287,4.0242,4.022,4.0197,0,0,0,4.0255,4.0219,4.0265,4.023,4.0282,4.0274,4.0313,4.0308,4.0309,4.0337,4.0288,4.0286,4.0242,4.0223,4.02,4.0174,4.016,0,0,4.0195,4.021,4.0192,4.0235,4.0212,4.0272,4.0242,4.0265,4.0287,4.0285,4.0284,4.0238,4.022,4.0198,4.0094,4.0084,0,0,0,4.0165,4.0151,4.0151,4.0153,4.0172,4.0187,4.0219,4.0228,4.0229,4.0281,4.0224,4.0214,4.0202,4.0191,4.0182,4.0173,4.028,4.028,4.028,4.0042,4.0077,4.0049,4.0088,4.0089,4.0125,4.0129,4.0148,4.0178,4.0164,4.0163,4.0097,4.0083,4.0076,4.0067,4.0152,4.0152,4.0152,4.0152,3.9959,3.9946,3.9993,3.9983,4.0019,4.0011,4.0044,4.0067,4.0064,4.0099,4.009,4.0125,4.0064,4.0058,4.0148,4.0149,4.0149,4.015,4.015,3.9883,3.9883,3.9898,3.9908,3.9912,3.9952,3.9949,3.9981,4.0011,4.0002,4.0006,4.0007,4.0012,4.0002,4.0001,4.0001,4.0001,4.0001,4.0001,3.9798,3.9817,3.9812,3.9833,3.9841,3.9856,3.9894,3.9902,3.992,3.9943,3.9944,3.9977,4.0052,4.007,3.9997,3.9998,3.9998,3.9999,3.9999,3.9701,3.973,3.9721,3.973,3.976,3.9763,3.9806,3.9821,3.9832,3.983,3.9867,3.9917,3.9934,3.9941,3.9957,3.9859,3.9859,3.9859,3.9859,3.9637,3.9651,3.9652,3.9664,3.9679,3.9719,3.9709,3.974,3.9775,3.9785,3.9804,3.9828,3.9834,3.9847,3.9857,3.9872,3.9754,3.9754,3.9754,3.958,3.9597,3.9583,3.9621,3.9649,3.9671,3.9664,3.9675,3.9721,3.9751,3.9794,3.9798,3.9837,3.9847,3.9875,3.9889,3.9918,0,0]}]]